Starlink 33690

operational
NORAD ID: 63406 Int'l Des: 2025-065 Owner: SPXS Country: US Constellation: starlink
LEOCIRCULAR

关于 Starlink 33690

正在加载描述...

实时位置

正在加载3D地球...

即将过境

高度历史

Altitude vs Time

uPlot chart will show altitude changes over time

两行轨道根数

1 63406U 25065H 25351.87769311 .00015822 00000-0 58287-3 0 9996
2 63406 42.9952 205.1507 0000360 242.2999 117.7816 15.27600492 40379
Epoch: Dec 17, 2025 • Age: 12 hours

当前状态

高度 482.0 km
速度 7.63 km/s
星下点 8.02°N, 154.8°E
发射日期 Mar 31, 2025
运行时间 0.7 years
类型 internet

技术详情

分类 Payload
质量 575.00 kg
干质量 530.00 kg
总质量 575.00 kg
长度 0.30 m
直径 4.10 m
跨度 29.00 m
形状 Box + pan
制造商 SPXS
平台类型 Starlink V2MO
阶段状态 In Orbit
所有者/国家 SPXS/US

大型星座

Loading constellations...